Regional Weather Roundup
Issued by NWS

Home | Current Version | Previous Version | Graphics & Text | Print | Product List | Glossary Off
Versions: 1 2 3 4 5 6 7 8 9 10 11 12 13 14 15 16 17 18 19 20 21 22 23 24 25 26 27 28 29 30 31 32 33 34 35 36 37 38 39 40 41 42 43 44 45 46 47 48 49 50

000
ASUS45 KPSR 230510
RWRAZ

ARIZONA HOURLY REGIONAL WEATHER ROUNDUP
NATIONAL WEATHER SERVICE PHOENIX AZ
1000 PM MST SAT JUL 22 2017

NOTE: FAIR INDICATES FEW OR NO CLOUDS BELOW 12,000 FEET WITH NO
SIGNIFICANT WEATHER AND/OR OBSTRUCTIONS TO VISIBILITY.

AZZ001>003-036-230600-
NORTHWEST ARIZONA

CITY           SKY/WX    TMP DP  RH WIND       PRES   REMARKS
KINGMAN        CLOUDY    78  63  59 S13       30.07R
$$

AZZ004>008-015-016-018-230600-
NORTH CENTRAL ARIZONA

CITY           SKY/WX    TMP DP  RH WIND       PRES   REMARKS
GRAND CANYON   PTCLDY    69  47  45 E5        30.26R
WILLIAMS       MOCLDY    66  55  68 SE5       30.25S
PRESCOTT       MOCLDY    72  62  71 CALM      30.12S
FLAGSTAFF      CLOUDY    63  57  81 CALM      30.29R
PAYSON         PTCLDY    70  63  78 E5        30.17R
PAGE           PTCLDY    88  49  25 E7        30.04R
$$

AZZ009>014-017-230600-
NORTHEAST ARIZONA

CITY           SKY/WX    TMP DP  RH WIND       PRES   REMARKS
WINSLOW        MOCLDY    76  55  48 CALM      30.10R
SAINT JOHNS    CLOUDY    69  63  81 CALM      30.18R
WINDOW ROCK    PTCLDY    70  51  51 E8        30.28R
SHOW LOW       CLOUDY    63  57  82 S8        30.24R
$$

AZZ540-542>544-546-548-230600-
GREATER PHOENIX AREA

CITY           SKY/WX    TMP DP  RH WIND       PRES   REMARKS
PHOENIX        CLOUDY    93  64  38 E8        29.82R
BUCKEYE        CLOUDY    86  73  66 N5        29.81R
LUKE AFB       CLOUDY    90  67  46 N6        29.81R
DEER VALLEY    CLOUDY    89  67  47 CALM      29.84R
SCOTTSDALE     MOCLDY    88  65  46 CALM      29.86R
MESA-GATEWAY   MOCLDY    88  70  55 SE10      29.86R
$$

AZZ539-553-230600-
SOUTHWEST MARICOPA COUNTY AND PINAL COUNTY

CITY           SKY/WX    TMP DP  RH WIND       PRES   REMARKS
CASA GRANDE    MOCLDY    89  69  51 SE12      29.88R
GILA BEND      FAIR      86  71  60 SE12      29.79S
$$

AZZ503-504-507>509-230600-
SOUTHEAST ARIZONA

CITY           SKY/WX    TMP DP  RH WIND       PRES   REMARKS
TUCSON         CLOUDY    75  70  84 E7        30.01R
DAVIS-MONTHAN  CLOUDY    74  74 100 CALM      30.00R
NOGALES        LGT RAIN  68  67  96 CALM      30.09R
SIERRA VISTA   CLOUDY    68  65  89 CALM      30.15S
DOUGLAS        RAIN      68  66  93 N3        30.10S
SAFFORD        CLOUDY    78  69  73 CALM      30.01R
$$

AZZ532-230600-
SOUTHWEST ARIZONA

CITY           SKY/WX    TMP DP  RH WIND       PRES   REMARKS
YUMA           PTCLDY    93  63  36 S12       29.75R
$$

CAZ041-043-047-048-061-525>527-560>570-230600-
SOUTHERN CALIFORNIA

CITY           SKY/WX    TMP DP  RH WIND       PRES   REMARKS
DOWNTOWN L.A.  CLEAR     71  63  75 CALM      29.89R
L.A. AIRPORT   CLEAR     68  63  84 W10       29.89R
SAN DIEGO      PTCLDY    70  60  70 SW5       29.92R
BURBANK        CLEAR     74  61  63 SE9       29.89R
ONTARIO        CLEAR     74  63  68 W9        29.90R
RIVERSIDE      CLEAR     75  64  68 W7        29.89R
PALM SPRINGS   CLEAR    100  59  25 NW13      29.76R HX 100
EL CENTRO NAS  CLEAR     93  60  33 SE8       29.72R
IMPERIAL       PTCLDY    98  61  29 SE12      29.69R
BLYTHE         PTCLDY   101  59  24 S20       29.74R HX 101
NEEDLES        PTCLDY   104  58  21 SE21G28   29.76R HX 104
$$

NVZ020-UTZ003-230600-
SOUTHERN NEVADA-UTAH

CITY           SKY/WX    TMP DP  RH WIND       PRES   REMARKS
LAS VEGAS      PTCLDY   102  52  18 S3        29.82R
SALT LAKE CITY MOCLDY    84  49  29 S6        30.05R
$$

NMZ009-TXZ055-230600-
NEW MEXICO-WEST TEXAS

CITY           SKY/WX    TMP DP  RH WIND       PRES   REMARKS
ALBUQUERQUE    CLOUDY    69  61  75 S6        30.22R
EL PASO        MOCLDY    74  68  81 S3        30.06R
$$


........................KEY........................
SKY/WX - SKY CONDITION/WEATHER
TMP    - TEMPERATURE IN FAHRENHEIT
DP     - DEW POINT IN FAHRENHEIT
RH     - RELATIVE HUMIDITY IN PERCENT
WIND   - DIRECTION AND SPEED IN MILES PER HOUR (MPH)
VRB    - VARIABLE WIND DIRECTION
PRES   - MEAN SEA LEVEL PRESSURE IN INCHES OF MERCURY
         F - FALLING PRESSURE   R - RISING PRESSURE
         S - STEADY PRESSURE
VSB    - VISIBILITY IN MILES
HX     - HEAT INDEX IN FAHRENHEIT
WCI    - WIND CHILL INDEX IN FAHRENHEIT
TC     - TEMPERATURE IN CELSIUS WHICH IS ALSO KNOWN AS
         TEMPERATURE IN CENTIGRADE
AFB    - AIR FORCE BASE
         LUKE AFB IS LUKE AIR FORCE BASE
         DAVIS-MONTHAN IS DAVIS-MONTHAN AIR FORCE BASE
NAS    - NAVAL AIR STATION
         EL CENTRO NAS IS EL CENTRO NAVAL AIR STATION
N/A    - NOT AVAILABLE




USA.gov is the U.S. government's official web portal to all federal, state and local government web resources and services.